| time (UTC) | temp C | wind direction | speed KPH | gust KPH | rain 1hr cm | rain 24hr cm | rain mn cm | humidity % | barometer mb |
| 20260507021041 | 7 | 0 | 3.2 | 12.9 | 0.05 | 1.24 | 1.24 | 97 | 1005.2 |
| 20260507020544 | 7 | 3 | 6.4 | 12.9 | 0.08 | 1.24 | 1.24 | 97 | 1005.3 |
| 20260507020100 | 7 | 335 | 1.6 | 16.1 | 0.08 | 1.24 | 1.24 | 97 | 1005.2 |
| 20260507015541 | 7 | 275 | 6.4 | 16.1 | 0.08 | 1.24 | 1.24 | 97 | 1005.3 |
| 20260507015041 | 8 | 290 | 8.0 | 16.1 | 0.08 | 1.24 | 1.24 | 97 | 1005.1 |
| 20260507014600 | 8 | 337 | 1.6 | 9.7 | 0.08 | 1.24 | 1.24 | 97 | 1005.3 |
| 20260507014043 | 8 | 0 | 1.6 | 16.1 | 0.08 | 1.24 | 1.24 | 96 | 1005.1 |
| 20260507013541 | 8 | 359 | 4.8 | 16.1 | 0.08 | 1.24 | 1.24 | 96 | 1005.1 |
| 20260507013050 | 8 | 327 | 8.0 | 16.1 | 0.05 | 1.22 | 1.22 | 96 | 1005.1 |
| 20260507012542 | 8 | 298 | 4.8 | 14.5 | 0.05 | 1.22 | 1.22 | 96 | 1004.9 |
| 20260507012042 | 8 | 41 | 6.4 | 24.1 | 0.03 | 1.19 | 1.19 | 96 | 1004.6 |
| 20260507011552 | 8 | 302 | 8.0 | 24.1 | 0.03 | 1.19 | 1.19 | 96 | 1004.7 |
| 20260507011042 | 8 | 297 | 6.4 | 16.1 | 0.03 | 1.19 | 1.19 | 96 | 1004.6 |
| 20260507010542 | 9 | 335 | 6.4 | 16.1 | 0.00 | 1.17 | 1.17 | 96 | 1004.5 |
| 20260507010057 | 9 | 310 | 8.0 | 16.1 | 0.00 | 1.17 | 1.17 | 96 | 1004.7 |
| 20260507005542 | 9 | 320 | 8.0 | 16.1 | 0.00 | 1.17 | 1.17 | 96 | 1004.5 |
| 20260507005041 | 9 | 329 | 6.4 | 14.5 | 0.00 | 1.17 | 1.17 | 96 | 1004.5 |
| 20260507004556 | 10 | 314 | 4.8 | 14.5 | 0.00 | 1.17 | 1.17 | 96 | 1004.5 |
| 20260507004041 | 10 | 329 | 4.8 | 14.5 | 0.00 | 1.17 | 1.17 | 96 | 1004.4 |
| 20260507003546 | 10 | 306 | 6.4 | 16.1 | 0.00 | 1.17 | 1.17 | 96 | 1004.4 |
| 20260507003057 | 10 | 324 | 6.4 | 16.1 | 0.00 | 1.17 | 1.17 | 96 | 1004.2 |
| 20260507002541 | 10 | 309 | 6.4 | 14.5 | 0.00 | 1.17 | 1.17 | 96 | 1004.2 |
| 20260507002042 | 10 | 1 | 4.8 | 12.9 | 0.00 | 1.17 | 1.17 | 96 | 1004.1 |
| 20260507001602 | 10 | 356 | 4.8 | 14.5 | 0.00 | 1.17 | 1.17 | 96 | 1003.9 |
| 20260507001041 | 10 | 310 | 4.8 | 14.5 | 0.00 | 1.17 | 1.17 | 96 | 1003.8 |
| 20260507000547 | 10 | 343 | 4.8 | 12.9 | 0.00 | 1.17 | 1.17 | 96 | 1003.9 |
| 20260507000055 | 10 | 60 | 4.8 | 9.7 | 0.03 | 1.17 | 1.17 | 96 | 1003.9 |
| 20260506235542 | 11 | 2 | 3.2 | 9.7 | 0.03 | 1.17 | 1.17 | 96 | 1003.8 |
| 20260506235043 | 11 | 311 | 3.2 | 9.7 | 0.03 | 1.17 | 1.17 | 96 | 1003.7 |
| 20260506234556 | 11 | 31 | 4.8 | 9.7 | 0.03 | 1.17 | 1.17 | 96 | 1003.5 |
| 20260506234041 | 11 | 32 | 4.8 | 11.3 | 0.03 | 1.17 | 1.17 | 96 | 1003.4 |
| 20260506233542 | 11 | 305 | 3.2 | 11.3 | 0.03 | 1.17 | 1.17 | 96 | 1003.5 |
| 20260506233109 | 11 | 321 | 4.8 | 11.3 | 0.03 | 1.17 | 1.17 | 96 | 1003.3 |
| 20260506232542 | 12 | 13 | 4.8 | 16.1 | 0.03 | 1.17 | 1.17 | 96 | 1003.4 |
| 20260506232043 | 12 | 309 | 8.0 | 17.7 | 0.05 | 1.17 | 1.17 | 96 | 1003.3 |
| 20260506231552 | 12 | 350 | 8.0 | 17.7 | 0.05 | 1.17 | 1.17 | 96 | 1003.3 |
| 20260506231041 | 12 | 296 | 8.0 | 16.1 | 0.05 | 1.17 | 1.17 | 96 | 1003.2 |
| 20260506230540 | 13 | 303 | 8.0 | 16.1 | 0.05 | 1.17 | 1.17 | 95 | 1003.1 |
| 20260506230059 | 13 | 333 | 9.7 | 16.1 | 0.05 | 1.14 | 1.14 | 96 | 1003.1 |
| 20260506225541 | 15 | 278 | 3.2 | 9.7 | 0.05 | 1.14 | 1.14 | 97 | 1003.0 |
| 20260506225040 | 15 | 324 | 1.6 | 4.8 | 0.08 | 1.14 | 1.14 | 97 | 1002.9 |
| 20260506224552 | 15 | 0 | 0.0 | 1.6 | 0.08 | 1.14 | 1.14 | 97 | 1002.8 |
| 20260506224043 | 15 | 0 | 0.0 | 1.6 | 0.13 | 1.14 | 1.14 | 97 | 1002.7 |
| 20260506223543 | 15 | 0 | 0.0 | 0.0 | 0.13 | 1.14 | 1.14 | 97 | 1002.9 |
| 20260506223053 | 15 | 0 | 0.0 | 1.6 | 0.15 | 1.14 | 1.14 | 97 | 1002.9 |
| 20260506222542 | 15 | 0 | 0.0 | 3.2 | 0.18 | 1.14 | 1.14 | 97 | 1002.8 |
| 20260506222041 | 15 | 145 | 0.0 | 3.2 | 0.18 | 1.12 | 1.12 | 97 | 1002.8 |
| 20260506221558 | 15 | 145 | 0.0 | 3.2 | 0.23 | 1.12 | 1.12 | 97 | 1002.7 |
| 20260506221041 | 15 | 0 | 0.0 | 4.8 | 0.23 | 1.12 | 1.12 | 97 | 1002.8 |
| 20260506220543 | 15 | 38 | 0.0 | 4.8 | 0.23 | 1.12 | 1.12 | 97 | 1002.9 |
| 20260506220054 | 15 | 0 | 0.0 | 3.2 | 0.20 | 1.09 | 1.09 | 97 | 1002.8 |
| 20260506215544 | 15 | 0 | 0.0 | 4.8 | 0.23 | 1.17 | 1.09 | 97 | 1002.9 |
| 20260506215044 | 15 | 77 | 0.0 | 4.8 | 0.23 | 1.14 | 1.07 | 97 | 1002.9 |
| 20260506214552 | 15 | 66 | 0.0 | 1.6 | 0.20 | 1.12 | 1.04 | 97 | 1002.9 |
| 20260506214041 | 15 | 114 | 0.0 | 1.6 | 0.20 | 1.09 | 1.02 | 97 | 1002.9 |
| 20260506213543 | 15 | 0 | 0.0 | 9.7 | 0.20 | 1.09 | 1.02 | 97 | 1002.9 |
| 20260506213111 | 15 | 0 | 0.0 | 9.7 | 0.23 | 1.07 | 0.99 | 96 | 1003.1 |
| 20260506212544 | 15 | 61 | 1.6 | 9.7 | 0.25 | 1.04 | 0.97 | 96 | 1003.0 |
| 20260506212041 | 15 | 148 | 0.0 | 8.0 | 0.28 | 1.02 | 0.94 | 96 | 1003.0 |
| 20260506211548 | 15 | 149 | 1.6 | 8.0 | 0.23 | 0.97 | 0.89 | 96 | 1003.1 |
| 20260506211043 | 15 | 142 | 1.6 | 8.0 | 0.25 | 0.97 | 0.89 | 97 | 1003.1 |
| 20260506210544 | 15 | 0 | 1.6 | 9.7 | 0.28 | 0.97 | 0.89 | 96 | 1003.1 |
| 20260506210056 | 15 | 171 | 0.0 | 9.7 | 0.28 | 0.97 | 0.89 | 96 | 1003.2 |
| 20260506205544 | 15 | 155 | 1.6 | 4.8 | 0.25 | 0.94 | 0.86 | 96 | 1003.3 |
| 20260506205041 | 15 | 135 | 0.0 | 6.4 | 0.23 | 0.91 | 0.84 | 96 | 1003.4 |
| 20260506204551 | 15 | 146 | 1.6 | 6.4 | 0.25 | 0.91 | 0.84 | 96 | 1003.4 |
| 20260506204041 | 15 | 157 | 0.0 | 6.4 | 0.23 | 0.89 | 0.81 | 96 | 1003.4 |
| 20260506203541 | 15 | 0 | 0.0 | 6.4 | 0.25 | 0.89 | 0.81 | 96 | 1003.5 |
| 20260506203055 | 15 | 0 | 1.6 | 6.4 | 0.23 | 0.84 | 0.76 | 96 | 1003.5 |
| 20260506202545 | 15 | 128 | 0.0 | 6.4 | 0.15 | 0.76 | 0.69 | 96 | 1003.5 |
| 20260506202044 | 15 | 0 | 0.0 | 6.4 | 0.15 | 0.74 | 0.66 | 96 | 1003.6 |
| 20260506201553 | 15 | 157 | 1.6 | 8.0 | 0.18 | 0.74 | 0.66 | 96 | 1003.5 |
| 20260506201044 | 15 | 148 | 3.2 | 8.0 | 0.15 | 0.71 | 0.64 | 96 | 1003.6 |
| 20260506200544 | 15 | 128 | 1.6 | 9.7 | 0.13 | 0.69 | 0.61 | 96 | 1003.7 |
| 20260506200052 | 15 | 46 | 1.6 | 9.7 | 0.15 | 0.69 | 0.61 | 96 | 1003.6 |
| 20260506195543 | 15 | 139 | 1.6 | 6.4 | 0.15 | 0.69 | 0.61 | 96 | 1003.8 |
| 20260506195041 | 15 | 132 | 1.6 | 6.4 | 0.18 | 0.69 | 0.61 | 96 | 1003.8 |
| 20260506194555 | 15 | 0 | 1.6 | 6.4 | 0.15 | 0.66 | 0.58 | 96 | 1003.8 |
| 20260506194043 | 15 | 135 | 0.0 | 6.4 | 0.18 | 0.66 | 0.58 | 96 | 1003.9 |
| 20260506193542 | 15 | 129 | 0.0 | 6.4 | 0.15 | 0.64 | 0.56 | 96 | 1004.0 |
| 20260506193103 | 15 | 70 | 1.6 | 6.4 | 0.15 | 0.61 | 0.53 | 96 | 1004.0 |
| 20260506192542 | 15 | 129 | 0.0 | 4.8 | 0.15 | 0.61 | 0.53 | 96 | 1004.0 |
| 20260506192043 | 15 | 117 | 1.6 | 11.3 | 0.15 | 0.58 | 0.51 | 96 | 1004.0 |
| 20260506191551 | 15 | 137 | 3.2 | 11.3 | 0.13 | 0.56 | 0.48 | 96 | 1004.1 |
| 20260506191044 | 15 | 0 | 0.0 | 9.7 | 0.15 | 0.56 | 0.48 | 96 | 1004.2 |
| 20260506190543 | 15 | 130 | 0.0 | 9.7 | 0.15 | 0.56 | 0.48 | 96 | 1004.3 |
| 20260506190057 | 15 | 172 | 1.6 | 9.7 | 0.15 | 0.53 | 0.46 | 96 | 1004.1 |
| 20260506185543 | 15 | 172 | 0.0 | 9.7 | 0.18 | 0.53 | 0.46 | 96 | 1004.1 |
| 20260506185042 | 15 | 153 | 3.2 | 9.7 | 0.18 | 0.51 | 0.43 | 96 | 1004.2 |
| 20260506184557 | 15 | 149 | 3.2 | 8.0 | 0.18 | 0.51 | 0.43 | 96 | 1004.4 |
| 20260506184042 | 15 | 169 | 0.0 | 9.7 | 0.18 | 0.48 | 0.41 | 96 | 1004.4 |
| 20260506183543 | 15 | 209 | 1.6 | 14.5 | 0.20 | 0.48 | 0.41 | 96 | 1004.4 |
| 20260506183053 | 15 | 144 | 1.6 | 14.5 | 0.20 | 0.46 | 0.38 | 96 | 1004.5 |
| 20260506182543 | 15 | 153 | 0.0 | 6.4 | 0.23 | 0.46 | 0.38 | 96 | 1004.4 |
| 20260506182043 | 15 | 148 | 1.6 | 6.4 | 0.23 | 0.43 | 0.36 | 95 | 1004.6 |
| 20260506181552 | 15 | 131 | 0.0 | 6.4 | 0.23 | 0.43 | 0.36 | 95 | 1004.7 |
| 20260506181041 | 15 | 131 | 0.0 | 4.8 | 0.23 | 0.41 | 0.33 | 95 | 1004.8 |
| 20260506180546 | 15 | 154 | 1.6 | 4.8 | 0.23 | 0.41 | 0.33 | 95 | 1004.8 |
| 20260506175542 | 15 | 141 | 1.6 | 4.8 | 0.20 | 0.36 | 0.28 | 94 | 1005.0 |
| 20260506175044 | 15 | 130 | 1.6 | 4.8 | 0.20 | 0.33 | 0.25 | 94 | 1005.0 |
| 20260506174554 | 15 | 117 | 1.6 | 6.4 | 0.20 | 0.30 | 0.23 | 94 | 1005.0 |
| 20260506174044 | 15 | 132 | 1.6 | 6.4 | 0.20 | 0.30 | 0.23 | 94 | 1005.1 |
| 20260506173543 | 15 | 0 | 1.6 | 6.4 | 0.18 | 0.28 | 0.20 | 93 | 1005.1 |
| 20260506173059 | 15 | 139 | 1.6 | 4.8 | 0.18 | 0.25 | 0.18 | 93 | 1005.1 |
| 20260506172542 | 15 | 0 | 0.0 | 0.0 | 0.15 | 0.23 | 0.15 | 93 | 1005.2 |
| 20260506172043 | 15 | 0 | 0.0 | 0.0 | 0.13 | 0.20 | 0.13 | 92 | 1005.3 |
| 20260506171556 | 16 | 0 | 0.0 | 0.0 | 0.13 | 0.20 | 0.13 | 92 | 1005.3 |
| 20260506171045 | 16 | 0 | 0.0 | 0.0 | 0.10 | 0.18 | 0.10 | 91 | 1005.3 |
| 20260506170541 | 16 | 0 | 0.0 | 0.0 | 0.10 | 0.18 | 0.10 | 90 | 1005.4 |
| 20260506170105 | 16 | 0 | 0.0 | 0.0 | 0.08 | 0.15 | 0.08 | 89 | 1005.4 |
| 20260506165542 | 16 | 0 | 0.0 | 0.0 | 0.08 | 0.15 | 0.08 | 89 | 1005.4 |
| 20260506165047 | 16 | 0 | 0.0 | 0.0 | 0.05 | 0.13 | 0.05 | 88 | 1005.4 |
| 20260506164556 | 16 | 0 | 0.0 | 1.6 | 0.03 | 0.10 | 0.03 | 87 | 1005.4 |
| 20260506164045 | 16 | 0 | 0.0 | 1.6 | 0.03 | 0.10 | 0.03 | 86 | 1005.4 |
| 20260506163546 | 16 | 0 | 0.0 | 3.2 | 0.03 | 0.10 | 0.03 | 84 | 1005.5 |
| 20260506163111 | 16 | 0 | 0.0 | 3.2 | 0.00 | 0.08 | 0.00 | 84 | 1005.5 |
| 20260506162543 | 16 | 0 | 0.0 | 4.8 | 0.00 | 0.08 | 0.00 | 83 | 1005.5 |
| 20260506162046 | 16 | 0 | 0.0 | 4.8 | 0.00 | 0.08 | 0.00 | 84 | 1005.4 |
| 20260506161551 | 16 | 156 | 1.6 | 4.8 | 0.00 | 0.08 | 0.00 | 84 | 1005.6 |
| 20260506161044 | 16 | 147 | 3.2 | 8.0 | 0.00 | 0.08 | 0.00 | 84 | 1005.7 |
| 20260506160629 | 16 | 134 | 1.6 | 8.0 | 0.00 | 0.08 | 0.00 | 84 | 1005.7 |
| 20260506160055 | 16 | 133 | 1.6 | 6.4 | 0.00 | 0.08 | 0.00 | 84 | 1006.1 |
| 20260506155638 | 16 | 113 | 0.0 | 4.8 | 0.00 | 0.08 | 0.00 | 83 | 1006.5 |
| 20260506154044 | 16 | 138 | 0.0 | 4.8 | 0.00 | 0.08 | 0.00 | 81 | 1006.9 |
| 20260506153544 | 16 | 114 | 0.0 | 3.2 | 0.00 | 0.08 | 0.00 | 80 | 1007.0 |
| 20260506153107 | 16 | 0 | 0.0 | 4.8 | 0.00 | 0.08 | 0.00 | 81 | 1007.1 |
| 20260506152544 | 16 | 0 | 0.0 | 4.8 | 0.00 | 0.08 | 0.00 | 80 | 1007.0 |
| 20260506152044 | 16 | 130 | 0.0 | 3.2 | 0.00 | 0.08 | 0.00 | 79 | 1007.0 |
| 20260506151558 | 16 | 0 | 0.0 | 3.2 | 0.00 | 0.08 | 0.00 | 79 | 1006.9 |
| 20260506151042 | 16 | 0 | 0.0 | 8.0 | 0.00 | 0.08 | 0.00 | 79 | 1006.8 |
| 20260506150542 | 16 | 151 | 3.2 | 8.0 | 0.00 | 0.08 | 0.00 | 79 | 1006.8 |
| 20260506150101 | 16 | 130 | 0.0 | 8.0 | 0.00 | 0.08 | 0.00 | 79 | 1006.7 |
| 20260506145543 | 16 | 72 | 1.6 | 8.0 | 0.00 | 0.08 | 0.00 | 81 | 1006.7 |
| 20260506145042 | 16 | 0 | 1.6 | 6.4 | 0.00 | 0.08 | 0.00 | 80 | 1006.9 |
| 20260506144555 | 16 | 82 | 1.6 | 8.0 | 0.00 | 0.08 | 0.00 | 80 | 1006.9 |
| 20260506144044 | 16 | 143 | 1.6 | 8.0 | 0.00 | 0.08 | 0.00 | 80 | 1007.0 |
| 20260506143544 | 16 | 169 | 1.6 | 4.8 | 0.00 | 0.08 | 0.00 | 80 | 1007.0 |
| 20260506143103 | 16 | 0 | 1.6 | 4.8 | 0.00 | 0.08 | 0.00 | 79 | 1007.1 |
| 20260506142544 | 16 | 172 | 1.6 | 4.8 | 0.00 | 0.08 | 0.00 | 79 | 1007.0 |
| 20260506142043 | 16 | 91 | 1.6 | 4.8 | 0.00 | 0.08 | 0.00 | 78 | 1006.9 |
| 20260506141553 | 16 | 192 | 0.0 | 4.8 | 0.00 | 0.08 | 0.00 | 80 | 1006.9 |
| 20260506141048 | 16 | 0 | 0.0 | 6.4 | 0.00 | 0.08 | 0.00 | 79 | 1006.9 |
| 20260506140542 | 16 | 246 | 1.6 | 6.4 | 0.00 | 0.08 | 0.00 | 79 | 1006.9 |
| 20260506140100 | 16 | 147 | 1.6 | 4.8 | 0.00 | 0.08 | 0.00 | 80 | 1007.0 |
| 20260506135542 | 16 | 84 | 0.0 | 6.4 | 0.00 | 0.08 | 0.00 | 80 | 1006.8 |
| 20260506135042 | 16 | 0 | 1.6 | 6.4 | 0.00 | 0.08 | 0.00 | 80 | 1006.9 |
| 20260506134556 | 16 | 135 | 1.6 | 6.4 | 0.00 | 0.08 | 0.00 | 79 | 1007.0 |
| 20260506134044 | 16 | 0 | 1.6 | 4.8 | 0.00 | 0.08 | 0.00 | 79 | 1007.1 |
| 20260506133545 | 16 | 0 | 0.0 | 3.2 | 0.00 | 0.08 | 0.00 | 80 | 1007.2 |
| 20260506133057 | 16 | 0 | 0.0 | 1.6 | 0.00 | 0.08 | 0.00 | 81 | 1007.3 |
| 20260506132542 | 16 | 0 | 0.0 | 3.2 | 0.00 | 0.08 | 0.00 | 80 | 1007.3 |
| 20260506132043 | 16 | 55 | 0.0 | 3.2 | 0.00 | 0.08 | 0.00 | 81 | 1007.4 |
| 20260506131600 | 16 | 60 | 0.0 | 3.2 | 0.00 | 0.08 | 0.00 | 81 | 1007.2 |
| 20260506131043 | 15 | 0 | 0.0 | 1.6 | 0.00 | 0.08 | 0.00 | 82 | 1007.3 |
| 20260506130543 | 15 | 0 | 0.0 | 3.2 | 0.00 | 0.08 | 0.00 | 81 | 1007.4 |
| 20260506130054 | 15 | 155 | 0.0 | 3.2 | 0.00 | 0.08 | 0.00 | 82 | 1007.3 |
| 20260506125546 | 15 | 148 | 0.0 | 3.2 | 0.00 | 0.08 | 0.00 | 82 | 1007.2 |
| 20260506125047 | 15 | 0 | 0.0 | 4.8 | 0.00 | 0.08 | 0.00 | 82 | 1007.2 |
| 20260506124555 | 15 | 155 | 0.0 | 4.8 | 0.00 | 0.08 | 0.00 | 83 | 1007.3 |
| 20260506124042 | 15 | 0 | 0.0 | 3.2 | 0.00 | 0.08 | 0.00 | 82 | 1007.2 |
| 20260506123543 | 15 | 284 | 0.0 | 3.2 | 0.00 | 0.08 | 0.00 | 83 | 1007.0 |
| 20260506123052 | 15 | 0 | 1.6 | 6.4 | 0.00 | 0.08 | 0.00 | 83 | 1007.0 |
| 20260506122545 | 15 | 0 | 1.6 | 6.4 | 0.00 | 0.08 | 0.00 | 83 | 1007.2 |
| 20260506122042 | 15 | 158 | 0.0 | 6.4 | 0.00 | 0.08 | 0.00 | 83 | 1007.3 |
| 20260506121554 | 15 | 146 | 0.0 | 6.4 | 0.00 | 0.08 | 0.00 | 84 | 1007.3 |
| 20260506121044 | 15 | 139 | 0.0 | 3.2 | 0.00 | 0.08 | 0.00 | 83 | 1007.4 |
| 20260506120542 | 15 | 0 | 0.0 | 6.4 | 0.00 | 0.08 | 0.00 | 83 | 1007.5 |
| 20260506120058 | 15 | 137 | 0.0 | 8.0 | 0.00 | 0.08 | 0.00 | 84 | 1007.4 |
| 20260506115542 | 15 | 117 | 1.6 | 8.0 | 0.00 | 0.08 | 0.00 | 84 | 1007.4 |
| 20260506115043 | 15 | 131 | 1.6 | 8.0 | 0.00 | 0.08 | 0.00 | 85 | 1007.5 |
| 20260506114604 | 14 | 114 | 1.6 | 8.0 | 0.00 | 0.08 | 0.00 | 86 | 1007.4 |
| 20260506114049 | 14 | 182 | 1.6 | 6.4 | 0.00 | 0.08 | 0.00 | 87 | 1007.5 |
| 20260506113545 | 14 | 141 | 0.0 | 4.8 | 0.00 | 0.08 | 0.00 | 90 | 1007.4 |
| 20260506113055 | 13 | 137 | 0.0 | 1.6 | 0.00 | 0.08 | 0.00 | 93 | 1007.4 |
| 20260506112542 | 13 | 0 | 0.0 | 0.0 | 0.00 | 0.08 | 0.00 | 94 | 1007.4 |
| 20260506112044 | 13 | 0 | 0.0 | 1.6 | 0.00 | 0.08 | 0.00 | 94 | 1007.5 |
| 20260506111550 | 13 | 0 | 0.0 | 1.6 | 0.00 | 0.08 | 0.00 | 95 | 1007.4 |
| 20260506111042 | 12 | 0 | 0.0 | 0.0 | 0.00 | 0.08 | 0.00 | 95 | 1007.5 |
| 20260506110542 | 12 | 0 | 0.0 | 0.0 | 0.00 | 0.08 | 0.00 | 96 | 1007.4 |
| 20260506105543 | 12 | 0 | 0.0 | 0.0 | 0.00 | 0.08 | 0.00 | 96 | 1007.5 |
| 20260506105042 | 12 | 0 | 0.0 | 0.0 | 0.00 | 0.08 | 0.00 | 95 | 1007.5 |
| 20260506104553 | 12 | 0 | 0.0 | 0.0 | 0.00 | 0.08 | 0.00 | 95 | 1007.5 |
| 20260506104045 | 12 | 0 | 0.0 | 0.0 | 0.00 | 0.08 | 0.00 | 95 | 1007.4 |
| 20260506103547 | 12 | 0 | 0.0 | 1.6 | 0.00 | 0.08 | 0.00 | 96 | 1007.6 |
| 20260506103053 | 12 | 0 | 0.0 | 1.6 | 0.00 | 0.08 | 0.00 | 96 | 1007.6 |
| 20260506102545 | 12 | 0 | 0.0 | 1.6 | 0.00 | 0.08 | 0.00 | 95 | 1007.4 |
| 20260506102043 | 12 | 0 | 0.0 | 1.6 | 0.00 | 0.08 | 0.00 | 95 | 1007.4 |
| 20260506101601 | 12 | 0 | 0.0 | 1.6 | 0.00 | 0.08 | 0.00 | 95 | 1007.4 |
| 20260506101044 | 12 | 134 | 0.0 | 3.2 | 0.00 | 0.08 | 0.00 | 95 | 1007.4 |
| 20260506100542 | 12 | 134 | 0.0 | 3.2 | 0.00 | 0.08 | 0.00 | 95 | 1007.4 |
| 20260506100054 | 12 | 139 | 1.6 | 3.2 | 0.00 | 0.08 | 0.00 | 95 | 1007.3 |
| 20260506095545 | 12 | 0 | 1.6 | 1.6 | 0.00 | 0.08 | 0.00 | 95 | 1007.2 |
| 20260506095042 | 12 | 116 | 0.0 | 1.6 | 0.00 | 0.08 | 0.00 | 95 | 1007.3 |
| 20260506094621 | 12 | 0 | 0.0 | 0.0 | 0.00 | 0.08 | 0.00 | 95 | 1007.3 |
| 20260506094044 | 12 | 0 | 0.0 | 0.0 | 0.00 | 0.08 | 0.00 | 95 | 1007.3 |
| 20260506093546 | 12 | 0 | 0.0 | 0.0 | 0.00 | 0.08 | 0.00 | 94 | 1007.3 |
| 20260506093056 | 12 | 0 | 0.0 | 0.0 | 0.00 | 0.08 | 0.00 | 94 | 1007.2 |
| 20260506092545 | 12 | 0 | 0.0 | 0.0 | 0.00 | 0.08 | 0.00 | 94 | 1007.2 |
| 20260506092045 | 12 | 0 | 0.0 | 1.6 | 0.00 | 0.08 | 0.00 | 94 | 1007.3 |
| 20260506091556 | 12 | 0 | 0.0 | 1.6 | 0.00 | 0.08 | 0.00 | 94 | 1007.4 |
| 20260506091042 | 13 | 0 | 0.0 | 1.6 | 0.00 | 0.08 | 0.00 | 94 | 1007.2 |
| 20260506090543 | 13 | 116 | 0.0 | 1.6 | 0.00 | 0.08 | 0.00 | 94 | 1007.1 |
| 20260506090054 | 13 | 0 | 0.0 | 0.0 | 0.00 | 0.08 | 0.00 | 94 | 1007.4 |
| 20260506085542 | 13 | 0 | 0.0 | 0.0 | 0.00 | 0.08 | 0.00 | 94 | 1007.5 |
| 20260506085042 | 13 | 0 | 0.0 | 0.0 | 0.00 | 0.08 | 0.00 | 94 | 1007.5 |
| 20260506084554 | 13 | 0 | 0.0 | 0.0 | 0.00 | 0.08 | 0.00 | 94 | 1007.5 |
| 20260506084046 | 13 | 0 | 0.0 | 0.0 | 0.00 | 0.08 | 0.00 | 94 | 1007.6 |
| 20260506083542 | 13 | 0 | 0.0 | 0.0 | 0.00 | 0.08 | 0.00 | 94 | 1007.5 |
| 20260506083102 | 13 | 0 | 0.0 | 0.0 | 0.00 | 0.08 | 0.00 | 93 | 1007.5 |
| 20260506082545 | 13 | 0 | 0.0 | 1.6 | 0.00 | 0.08 | 0.00 | 93 | 1007.5 |
| 20260506082044 | 13 | 0 | 0.0 | 1.6 | 0.00 | 0.08 | 0.00 | 93 | 1007.5 |
| 20260506081558 | 13 | 116 | 0.0 | 1.6 | 0.00 | 0.08 | 0.00 | 92 | 1007.4 |
| 20260506081046 | 13 | 0 | 0.0 | 3.2 | 0.00 | 0.08 | 0.00 | 91 | 1007.6 |
| 20260506080543 | 13 | 0 | 0.0 | 3.2 | 0.00 | 0.08 | 0.00 | 91 | 1007.6 |
| 20260506073048 | 13 | 0 | 0.0 | 1.6 | 0.00 | 0.08 | 0.00 | 95 | 1007.6 |
| 20260506072545 | 13 | 0 | 0.0 | 3.2 | 0.00 | 0.08 | 0.00 | 95 | 1007.5 |
| 20260506072042 | 13 | 309 | 1.6 | 3.2 | 0.00 | 0.08 | 0.00 | 95 | 1007.5 |
| 20260506071553 | 13 | 309 | 0.0 | 0.0 | 0.00 | 0.08 | 0.00 | 95 | 1007.4 |
| 20260506071045 | 13 | 0 | 0.0 | 4.8 | 0.00 | 0.08 | 0.00 | 95 | 1007.4 |
| 20260506070545 | 13 | 0 | 0.0 | 4.8 | 0.00 | 0.08 | 0.00 | 95 | 1007.3 |
| 20260506062042 | 13 | 0 | 0.0 | 4.8 | 0.00 | 0.08 | 0.00 | 95 | 1007.2 |
| 20260506061558 | 13 | 17 | 0.0 | 3.2 | 0.00 | 0.08 | 0.00 | 95 | 1007.1 |
| 20260506061043 | 13 | 0 | 0.0 | 1.6 | 0.00 | 0.08 | 0.00 | 95 | 1007.1 |
| 20260506060542 | 13 | 136 | 0.0 | 1.6 | 0.00 | 0.08 | 0.00 | 95 | 1007.1 |
| 20260506051042 | 13 | 0 | 0.0 | 1.6 | 0.00 | 0.08 | 0.00 | 93 | 1007.3 |
| 20260506050545 | 13 | 0 | 0.0 | 1.6 | 0.00 | 0.08 | 0.00 | 94 | 1007.4 |
| 20260506045041 | 13 | 0 | 0.0 | 3.2 | 0.00 | 0.08 | 0.00 | 92 | 1007.1 |
| 20260506044551 | 13 | 0 | 1.6 | 3.2 | 0.00 | 0.08 | 0.00 | 93 | 1007.3 |
| 20260506044045 | 13 | 139 | 0.0 | 1.6 | 0.00 | 0.08 | 0.00 | 93 | 1007.0 |
| 20260506043545 | 13 | 0 | 0.0 | 1.6 | 0.00 | 0.08 | 0.00 | 93 | 1007.1 |
| 20260506043049 | 13 | 0 | 0.0 | 4.8 | 0.00 | 0.08 | 0.00 | 93 | 1007.0 |
| 20260506042545 | 13 | 340 | 1.6 | 4.8 | 0.00 | 0.08 | 0.00 | 92 | 1007.0 |
| 20260506042045 | 13 | 0 | 0.0 | 3.2 | 0.00 | 0.08 | 0.00 | 92 | 1007.0 |
| 20260506041550 | 14 | 252 | 0.0 | 3.2 | 0.00 | 0.08 | 0.00 | 92 | 1006.8 |
| 20260506041042 | 14 | 0 | 1.6 | 3.2 | 0.00 | 0.08 | 0.00 | 92 | 1007.0 |
| 20260506040542 | 14 | 0 | 0.0 | 1.6 | 0.00 | 0.08 | 0.00 | 91 | 1007.0 |
| 20260506040101 | 14 | 0 | 0.0 | 1.6 | 0.00 | 0.08 | 0.00 | 90 | 1007.0 |
| 20260506035542 | 14 | 0 | 0.0 | 1.6 | 0.00 | 0.08 | 0.08 | 89 | 1006.8 |
| 20260506035042 | 14 | 0 | 0.0 | 3.2 | 0.00 | 0.08 | 0.08 | 89 | 1006.9 |
| 20260506034604 | 14 | 0 | 0.0 | 3.2 | 0.00 | 0.08 | 0.08 | 89 | 1007.0 |
| 20260506034045 | 14 | 0 | 0.0 | 3.2 | 0.00 | 0.08 | 0.08 | 88 | 1007.1 |
| 20260506033542 | 14 | 143 | 1.6 | 3.2 | 0.00 | 0.08 | 0.08 | 88 | 1007.0 |
| 20260506033050 | 14 | 105 | 0.0 | 3.2 | 0.00 | 0.08 | 0.08 | 89 | 1007.0 |
| 20260506032542 | 14 | 0 | 0.0 | 1.6 | 0.00 | 0.08 | 0.08 | 89 | 1007.2 |
| 20260506032042 | 14 | 0 | 0.0 | 1.6 | 0.00 | 0.08 | 0.08 | 90 | 1007.1 |
| 20260506031600 | 14 | 140 | 0.0 | 0.0 | 0.00 | 0.08 | 0.08 | 89 | 1007.0 |
| 20260506031043 | 14 | 0 | 0.0 | 0.0 | 0.00 | 0.08 | 0.08 | 89 | 1007.2 |
| 20260506030544 | 14 | 0 | 0.0 | 0.0 | 0.00 | 0.08 | 0.08 | 89 | 1007.2 |
| 20260506030052 | 14 | 0 | 0.0 | 1.6 | 0.00 | 0.08 | 0.08 | 88 | 1007.2 |
| 20260506025542 | 14 | 140 | 0.0 | 3.2 | 0.00 | 0.08 | 0.08 | 88 | 1007.1 |
| 20260506025042 | 15 | 0 | 0.0 | 4.8 | 0.00 | 0.08 | 0.08 | 88 | 1007.1 |
| 20260506024556 | 15 | 141 | 3.2 | 4.8 | 0.00 | 0.08 | 0.08 | 88 | 1006.9 |
| 20260506024042 | 14 | 115 | 0.0 | 1.6 | 0.00 | 0.08 | 0.08 | 88 | 1006.8 |
| 20260506023546 | 15 | 0 | 0.0 | 1.6 | 0.00 | 0.08 | 0.08 | 87 | 1006.8 |
| 20260506023053 | 15 | 0 | 0.0 | 1.6 | 0.00 | 0.08 | 0.08 | 85 | 1006.7 |
| 20260506022544 | 15 | 0 | 0.0 | 3.2 | 0.00 | 0.08 | 0.08 | 85 | 1006.7 |
| 20260506022042 | 15 | 143 | 0.0 | 3.2 | 0.00 | 0.08 | 0.08 | 85 | 1006.7 |
| 20260506021557 | 15 | 120 | 1.6 | 4.8 | 0.00 | 0.08 | 0.08 | 85 | 1006.7 |